Location: Unspecified
(0.0000°N, 0.0000°E)
Time: 06:59:42
(UTC+02:00)

Resurs 01 Rocket - Visible Passes

Search period start: 21 April 2015 00:00
Search period end: 01 May 2015 00:00
Orbit: 634 x 646 km, 98.2° (Epoch: 20 April)

Date Brightness Start Highest point End Pass type
(mag) Time Alt. Az. Time Alt. Az. Time Alt. Az.
21 Apr 3.9 21:01:13 10° SSW 21:04:56 25° W 21:08:31 10° NW visible
22 Apr 4.7 21:26:36 10° SW 21:28:30 12° W 21:30:05 10° W visible
24 Apr 2.2 20:34:44 10° S 20:39:07 60° WSW 20:43:26 10° NNW visible
25 Apr 3.7 20:58:48 10° SSW 21:02:37 28° W 21:06:20 10° NW visible
26 Apr 4.6 21:23:54 10° SW 21:26:10 13° W 21:28:09 10° WNW visible
28 Apr 2.1 20:32:23 10° S 20:36:48 67° W 20:41:09 10° NNW visible
29 Apr 3.6 20:56:23 10° SSW 21:00:17 30° W 21:04:06 10° NW visible
30 Apr 4.6 07:32:52 10° ENE 07:35:34 17° E 07:38:29 10° SE visible
30 Apr 4.5 21:21:15 10° SW 21:23:50 15° W 21:26:08 10° WNW visible
